Indianapolis, IN

11:00 AM EST on February 09, 2016 (GMT -0500)
Indianapolis International

Weather History for KIND - January, 2013

Change the Weather History Date:

Thursday, January 3, 2013

  Actual Average Record
Temperature  
Mean Temperature 20 °F 28 °F  
Max Temperature 30 °F 36 °F 65 °F (1950)
Min Temperature 10 °F 21 °F -22 °F (1879)
Degree Days  
Heating Degree Days 45 37  
Month to date heating degree days 138 111  
Since 1 July heating degree days 2119 2187  
Cooling Degree Days 0 0  
Month to date cooling degree days 0 0  
Year to date cooling degree days 0 0  
Moisture  
Dew Point 16 °F    
Average Humidity 72    
Maximum Humidity 85    
Minimum Humidity 58    
Precipitation  
Precipitation T in 0.10 in 2.82 in (1950)
Month to date precipitation 0.01 0.30  
Year to date precipitation 0.01 0.30  
Snow  
Snow T in 0.30 in 1.80 in (1977)
Month to date snowfall 0.3 0.8  
Since 1 July snowfall 15.3 8.8  
Snow Depth 6.00 in    
Sea Level Pressure  
Sea Level Pressure 30.28 in    
Wind  
Wind Speed 9 mph (WSW)    
Max Wind Speed 16 mph    
Max Gust Speed 20 mph    
Visibility 10 miles    
Events Snow    
T = Trace of Precipitation, MM = Missing Value Source: NWS Daily Summary

Daily Weather History Graph

Daily Weather History Graph

Search for Another Location

Airport or City:

Trip Planner

Search our weather history database for the weather conditions in past years. The results will help you decide how hot, cold, wet, or windy it might be!

Date:

Astronomy

Jan. 03, 2013 Rise Set
Actual Time 8:06 AM EST 5:33 PM EST
Civil Twilight 7:36 AM EST 6:03 PM EST
Nautical Twilight 7:02 AM EST 6:37 PM EST
Astronomical Twilight 6:29 AM EST 7:10 PM EST
Moon No Moon Rise 11:18 AM EST (1/3)
Length of Visible Light 10h 27m
Length of Day
9h 27m
Waning Gibbous, 65% of the Moon is Illuminated
Jan 3
Waning Gibbous
Jan 4
Last Quarter
Jan 11
New
Jan 18
First Quarter
Jan 26
Full

Hourly Weather History & Observations

Time (EST) Temp. Windchill Dew Point Humidity Pressure Visibility Wind Dir Wind Speed Gust Speed Precip Events Conditions
12:54 AM 12.9 °F 6.9 °F 7.0 °F 77% 30.25 in 10.0 mi South 3.5 mph - N/A   Partly Cloudy
1:54 AM 14.0 °F 5.1 °F 5.0 °F 67% 30.23 in 10.0 mi South 5.8 mph - N/A   Clear
2:54 AM 10.9 °F 2.9 °F 5.0 °F 77% 30.23 in 10.0 mi WSW 4.6 mph - N/A   Clear
3:54 AM 10.9 °F 0.2 °F 3.0 °F 70% 30.23 in 10.0 mi WSW 6.9 mph - N/A   Clear
4:54 AM 14.0 °F 2.9 °F 1.9 °F 59% 30.23 in 10.0 mi SW 8.1 mph - N/A   Clear
5:54 AM 12.9 °F 2.6 °F 1.0 °F 59% 30.24 in 10.0 mi SW 6.9 mph - N/A   Clear
6:54 AM 12.9 °F 2.6 °F 1.9 °F 62% 30.25 in 10.0 mi SW 6.9 mph - N/A   Partly Cloudy
7:54 AM 12.0 °F 1.5 °F 3.9 °F 70% 30.25 in 10.0 mi SW 6.9 mph - N/A   Partly Cloudy
8:54 AM 12.9 °F 1.6 °F 5.0 °F 71% 30.27 in 10.0 mi SW 8.1 mph - N/A   Partly Cloudy
9:54 AM 17.1 °F 5.0 °F 9.0 °F 71% 30.27 in 10.0 mi WSW 10.4 mph - N/A   Scattered Clouds
10:54 AM 19.9 °F 7.9 °F 12.0 °F 71% 30.30 in 10.0 mi WSW 11.5 mph - N/A   Partly Cloudy
11:14 AM 21.2 °F 10.1 °F 14.0 °F 74% 30.26 in 10.0 mi WSW 10.4 mph - N/A   Overcast
11:54 AM 23.0 °F 13.1 °F 16.0 °F 74% 30.30 in 10.0 mi WSW 9.2 mph - N/A   Overcast
12:39 PM 26.6 °F 17.5 °F 19.4 °F 74% 30.23 in 10.0 mi WSW 9.2 mph - N/A   Partly Cloudy
12:54 PM 28.0 °F 19.3 °F 21.0 °F 75% 30.27 in 10.0 mi West 9.2 mph - N/A   Scattered Clouds
1:54 PM 28.0 °F 17.5 °F 21.9 °F 78% 30.26 in 9.0 mi WSW 12.7 mph - N/A   Mostly Cloudy
2:54 PM 28.9 °F 19.2 °F 23.0 °F 78% 30.27 in 9.0 mi WSW 11.5 mph - N/A   Overcast
3:54 PM 30.0 °F 20.0 °F 23.0 °F 75% 30.28 in 10.0 mi WSW 12.7 mph - N/A   Overcast
4:54 PM 28.9 °F 19.2 °F 23.0 °F 78% 30.30 in 9.0 mi WSW 11.5 mph - N/A   Overcast
5:15 PM 28.4 °F 18.0 °F 23.0 °F 80% 30.26 in 9.0 mi WSW 12.7 mph - N/A   Overcast
5:43 PM 28.4 °F 18.5 °F 23.0 °F 80% 30.27 in 9.0 mi WSW 11.5 mph - N/A   Overcast
5:54 PM 28.9 °F 20.4 °F 23.0 °F 78% 30.31 in 10.0 mi WSW 9.2 mph - N/A   Overcast
6:52 PM 28.4 °F 17.5 °F 23.0 °F 80% 30.29 in 10.0 mi West 13.8 mph 19.6 mph N/A   Overcast
6:54 PM 30.0 °F 20.0 °F 23.0 °F 75% 30.33 in 10.0 mi West 12.7 mph 19.6 mph N/A   Overcast
7:54 PM 28.9 °F 19.8 °F 23.0 °F 78% 30.33 in 10.0 mi WSW 10.4 mph - N/A   Overcast
8:54 PM 28.9 °F 20.4 °F 24.1 °F 82% 30.33 in 10.0 mi SW 9.2 mph - N/A   Overcast
9:54 PM 28.9 °F 21.1 °F 24.1 °F 82% 30.33 in 10.0 mi WSW 8.1 mph - N/A   Overcast
10:54 PM 30.0 °F 21.1 °F 25.0 °F 82% 30.34 in 9.0 mi West 10.4 mph - 0.00 in Snow Light Snow
11:54 PM 28.9 °F 18.2 °F 21.9 °F 75% 30.34 in 10.0 mi WNW 13.8 mph - 0.00 in   Overcast